Regional Weather Roundup
Issued by NWS

Home | Current Version | Previous Version | Graphics & Text | Print | Product List | Glossary On
Versions: 1 2 3 4 5 6 7 8 9 10 11 12 13 14 15 16 17 18 19 20 21 22 23 24 25 26 27 28 29 30 31 32 33 34 35 36 37 38 39 40 41 42 43 44 45 46 47 48 49 50
000
ASUS43 KOAX 230802
RWRNE

WEATHER ROUNDUP FOR NEBRASKA
NATIONAL WEATHER SERVICE OMAHA NE
300 AM CDT SUN APR 23 2017

NOTES: SATELLITE DATA IS BEING USED TO AUGMENT CLOUD COVER ABOVE
       12000 FEET.
       "FAIR" INDICATES FEW OR NO CLOUDS BELOW 12,000 FEET WITH NO
       SIGNIFICANT WEATHER AND/OR OBSTRUCTIONS TO VISIBILITY.

  * THESE STATIONS DO NOT REPORT WEATHER SUCH AS RAIN...SNOW OR FOG.

NEZ001>004-019>022-054>056-230900-
NEBRASKA PANHANDLE

CITY           SKY/WX    TMP DP  RH WIND       PRES   REMARKS
SCOTTSBLUFF    CLOUDY    44  29  55 VRB5      30.07F
ALLIANCE       CLOUDY    30  26  85 S10       30.09F WCI  21
CHADRON        CLEAR     50  29  44 S18       30.02F
KIMBALL        CLOUDY    41  33  72 S13       30.11F
SIDNEY         CLOUDY    36  31  82 S10       30.12F WCI  28
$$

NEZ057>060-069>072-079>082-230900-
SOUTHWEST NEBRASKA

CITY           SKY/WX    TMP DP  RH WIND       PRES   REMARKS
NORTH PLATTE   CLEAR     40  29  64 S6        30.17S
IMPERIAL       CLEAR     40  32  73 SW9       30.17F WCI  34
LEXINGTON      CLEAR     38  27  63 S3        30.17F
MCCOOK         CLEAR     37  30  75 SW8       30.18F WCI  31
OGALLALA       CLEAR     41  31  68 S12       30.15F
$$

NEZ005>010-023>029-035>040-094-230900-
NORTH CENTRAL NEBRASKA

CITY           SKY/WX    TMP DP  RH WIND       PRES   REMARKS
VALENTINE      CLEAR     46  26  45 SW14      30.10F
AINSWORTH      CLEAR     44  32  64 SW12      30.13F
BROKEN BOW     CLEAR     34  26  72 N3        30.17S
O`NEILL        CLEAR     43  32  65 S7        30.15F
ORD            CLEAR     37  30  75 SW8       30.16S WCI  31
THEDFORD       CLEAR     40  29  65 S6        30.15F
$$

NEZ041-046>049-061>064-073>077-083>087-230900-
SOUTH CENTRAL NEBRASKA

CITY           SKY/WX    TMP DP  RH WIND       PRES   REMARKS
GRAND ISLAND   CLEAR     41  31  67 S9        30.19F
AURORA         CLEAR     41  27  57 SW6       30.18F
HASTINGS       CLEAR     46  27  47 S7        30.20F
HEBRON         CLEAR     35  31  86 CALM      30.21S
HOLDREGE       CLEAR     42  28  57 SW7       30.19F
KEARNEY *      CLEAR     43  27  52 S7        30.18F
YORK           CLEAR     45  28  53 SW7       30.19F
$$

NEZ011>018-030>034-042>045-230900-
NORTHEAST NEBRASKA

CITY           SKY/WX    TMP DP  RH WIND       PRES   REMARKS
NORFOLK        CLEAR     39  31  72 S9        30.16F WCI  33
ALBION         CLEAR     46  30  55 CALM      30.17F
BLAIR          CLEAR     51  32  48 CALM      30.17S
FREMONT        CLEAR     42  39  90 CALM      30.17F
TEKAMAH        CLEAR     42  37  82 CALM      30.16F
WAYNE          CLEAR     39  32  76 S3        30.16F
$$

NEZ050>053-065>068-078-088>093-230900-
SOUTHEAST NEBRASKA

CITY           SKY/WX    TMP DP  RH WIND       PRES   REMARKS
LINCOLN        CLEAR     39  34  82 CALM      30.20F
OMAHA EPPLEY   CLEAR     44  36  73 CALM      30.17F
BEATRICE       CLEAR     37  34  87 CALM      30.19F
FALLS CITY     CLEAR     39  35  86 W3        30.19F
NEBRASKA CITY  CLEAR     50  23  35 SW5       30.18F
PLATTSMOUTH    CLEAR     45  30  55 CALM      30.18S
$$

NEZ044-045-051>053-067-230900-
OMAHA AREA

CITY           SKY/WX    TMP DP  RH WIND       PRES   REMARKS
OMAHA EPPLEY   CLEAR     44  36  73 CALM      30.17F
BLAIR          CLEAR     51  32  48 CALM      30.17S
FREMONT        CLEAR     42  39  90 CALM      30.17F
MILLARD        CLEAR     43  41  92 CALM      30.17F
OFFUTT AFB     CLEAR     35  32  91 CALM      30.17F
PLATTSMOUTH    CLEAR     45  30  55 CALM      30.18S
WAHOO          FAIR      41  35  78 CALM      30.17F
$$




USA.gov is the U.S. government's official web portal to all federal, state and local government web resources and services.